Location: Deerlick Astronomy Village
(33.5614°N, 82.7631°W)
Time: 18:44:23
(UTC-05:00)

CAS-4A - Pass Details

Date: 06 November 2020
Orbit: 528 x 543 km, 43.0° (Epoch: 30 November)

Event Time Altitude Azimuth Distance (km) Brightness Sun altitude
Exits shadow 04:34:49 21° 136° (SE) 1,228 ? -29.5°
Drops below altitude 10° 04:36:14 10° 132° (SE) 1,767 ? -29.2°
Sets 04:38:28 0° 129° (SE) 2,652 ? -28.7°
